ZHONGXING-10R

Last updated on Sun Jun 21 2026 00:03:09 GMT+0000 (Coordinated Universal Time)

1 63075U 25036A 26171.41386541 -.00000356 00000+0 00000+0 0 9999 2 63075 0.0045 296.2419 0003589 202.1815 29.7251 1.00270500 4992
UTC large
Height (km)
Speed (km/s)
/
Latitude / Longitude
Inclination (degrees)
Orbital Period (minutes)
Azimuth
Elevation
Range (km)
Doppler Factor

Next 0 passes for location: London (51.5072 / 0.1276)

No passes found over London.
ZHONGXING-10R